Flag for United Kingdom Weather past 2 weeks in Reading, England, United Kingdom

57 °F

Partly cloudy.

Feels Like: 56 °F
Forecast: 44 / 60 °F
Wind: 7 mph from West

Location: Benson

Current Time: Oct 7, 2015 at 5:46:57 AM

Latest Report: Oct 7, 2015 at 4:50 AM

Visibility: N/A

Pressure: 29.59 "Hg

Humidity: 94%

Dew point: 55 °F

Location of ReadingLocation

Historic Weather in Reading — Graph


Reading temperature yesterday

Maximum temperature yesterday: 64 °F (at 12:50 PM)
Minimum temperature yesterday: 57 °F (at 7:50 PM)
Average temperature yesterday: 60 °F

Past Weeks' High & Low Weather Summary

High64 °F (Sep 27, 1:50 PM)100% (Sep 22, 3:50 AM)30.63 "Hg (Sep 22, 3:50 AM)
Low36 °F (Sep 26, 3:50 AM)34% (Sep 30, 3:50 PM)29.36 "Hg (Oct 6, 12:50 PM)
Average53 °F82%30.11 "Hg
* Reported Sep 22 3:50 AM — Oct 7 3:50 AM, Reading, Weather by CustomWeather, © 2015

Note: Actual official high and low records may vary slightly from our data, if they occured in-between our weather recording intervals... More about our weather records


Reading weather history for previous 24 hours

Time TempWeatherWind HumidityBarometerVisibility
3:50 AM
Wed, Oct 7
57 °FPassing clouds.8 mph94%29.56 "HgN/A
2:50 AM57 °FPartly cloudy.7 mph94%29.56 "HgN/A
1:50 AM57 °FPassing clouds.7 mph94%29.53 "HgN/A
12:50 AM57 °FFog.5 mph100%29.50 "Hg4 mi
11:50 PM
Tue, Oct 6
57 °FFog.3 mph100%29.47 "Hg3 mi
10:50 PM57 °FLight rain. Passing clouds.3 mph100%29.47 "Hg5 mi
9:50 PM57 °FSprinkles. Partly cloudy.2 mph100%29.45 "HgN/A
8:50 PM57 °FSprinkles. Passing clouds.5 mph100%29.42 "HgN/A
7:50 PM57 °FRain showers. Passing clouds.3 mph100%29.39 "HgN/A
6:50 PM59 °FPartly sunny.3 mph94%29.36 "HgN/A
5:50 PM59 °FPartly sunny.7 mph94%29.36 "HgN/A
4:50 PM61 °FPartly sunny.7 mph88%29.36 "HgN/A
3:50 PM61 °FSprinkles. Partly sunny.15 mph88%29.36 "HgN/A
2:50 PM64 °FPartly sunny.16 mph78%29.36 "HgN/A
1:50 PM64 °FSprinkles. Broken clouds.18 mph78%29.36 "HgN/A
12:50 PM64 °FPartly sunny.17 mph83%29.36 "HgN/A
12:01 PM61 °FRain showers. Broken clouds.14 mph94%29.39 "Hg3 mi
11:50 AM63 °FSprinkles. Broken clouds.12 mph94%29.39 "HgN/A
11:03 AM63 °FLots of rain. Broken clouds.13 mph88%29.39 "Hg4 mi
10:50 AM63 °FPartly sunny.8 mph94%29.39 "HgN/A
9:50 AM61 °FPartly sunny.13 mph94%29.39 "HgN/A
8:50 AM61 °FPartly sunny.13 mph94%29.42 "HgN/A
7:50 AM59 °FPassing clouds.12 mph94%29.42 "HgN/A
6:50 AM59 °FPassing clouds.8 mph94%29.45 "HgN/A
5:50 AM59 °FPassing clouds.8 mph94%29.45 "HgN/A
Weather by CustomWeather, © 2015

See weather overviewHow to use our weather pages